Observations for Trim Market St
| Time | AQI | Temp °C | Hum % | Pres Pa | CO μg/m³ | H₂S μg/m³ | NO μg/m³ | NO₂ μg/m³ | O₃ μg/m³ | SO₂ μg/m³ | PM1 μg/m³ | PM2.5 μg/m³ | PM10 μg/m³ |
|---|---|---|---|---|---|---|---|---|---|---|---|---|---|
| Wednesday 15 July 2026 | |||||||||||||
| 04:56 | 1 | 17.3 | 78 | 6,409 | 0.18 | 0 | 0 | 6.63 | 18.58 | 0 | 8.55 | 12.64 | 17.96 |
| 04:55 | 1 | 17.4 | 78 | 7,447 | 0.16 | 0 | 0 | 7 | 18.93 | 0 | 8.55 | 12.64 | 19.7 |
| 04:50 | 1 | 17.3 | 78 | 10,411 | 0.17 | 0 | 0 | 4.85 | 19.82 | 0 | 8.55 | 11.24 | 17.4 |
| 04:48 | 1 | 17.4 | 78 | 11,857 | 0.16 | 0 | 0 | 5.52 | 17.63 | 0 | 7.13 | 11.71 | 17.98 |
| 04:45 | 1 | 17.4 | 78 | 13,442 | 0.17 | 0 | 0 | 4.44 | 18.7 | 0 | 8.55 | 11.73 | 16.84 |
| 04:44 | 1 | 17.4 | 78 | 14,060 | 0.17 | 0 | 0 | 7.74 | 17.83 | 0 | 7.84 | 10.77 | 16.84 |
| 04:37 | 1 | 17.4 | 77 | 17,587 | 0.17 | 0 | 0 | 6.38 | 19.95 | 0 | 7.84 | 12.22 | 17.45 |
| 04:36 | 1 | 17.4 | 77 | 18,527 | 0.17 | 0 | 0 | 9.19 | 25.01 | 0 | 7.84 | 13.18 | 19.8 |
| 04:35 | 1 | 17.4 | 77 | 19,281 | 0.16 | 0 | 0 | 5.99 | 22.96 | 0 | 9.26 | 13.66 | 18.63 |
| 04:34 | 1 | 17.4 | 77 | 19,971 | 0.16 | 0 | 0 | 6.1 | 17.7 | 0 | 7.84 | 12.24 | 18.05 |
| 04:33 | 1 | 17.4 | 77 | 20,609 | 0.17 | 0 | 0 | 6.7 | 18.4 | 0 | 7.84 | 12.24 | 17.47 |
| 04:31 | 1 | 17.4 | 77 | 21,659 | 0.18 | 0 | 0 | 5.91 | 19.59 | 0 | 7.84 | 11.77 | 18.65 |
| 04:30 | 1 | 17.4 | 77 | 22,161 | 0.17 | 0 | 0 | 5.41 | 20.79 | 0 | 7.84 | 12.72 | 18.65 |
| 04:29 | 1 | 17.4 | 77 | 22,660 | 0.18 | 0 | 0 | 5.22 | 20.75 | 0 | 9.26 | 12.73 | 19.25 |
| 04:28 | 1 | 17.4 | 77 | 23,238 | 0.16 | 0 | 0 | 7.72 | 21.48 | 0 | 9.26 | 12.25 | 18.08 |
| 04:27 | 1 | 17.4 | 77 | 23,952 | 0.17 | 0 | 0 | 4.93 | 19.02 | 0 | 7.13 | 9.4 | 14.57 |
| 04:25 | 1 | 17.4 | 77 | 24,918 | 0.17 | 0 | 0 | 5.73 | 20.42 | 0 | 8.55 | 12.26 | 17.5 |
| 04:24 | 1 | 17.4 | 77 | 25,294 | 0.17 | 0 | 0 | 4.15 | 25.35 | 0 | 9.98 | 13.7 | 19.27 |
| 04:22 | 1 | 17.4 | 77 | 25,719 | 0.16 | 0 | 0 | 5.96 | 21.89 | 0 | 9.98 | 14.18 | 19.87 |
| 04:21 | 1 | 17.4 | 77 | 26,203 | 0.18 | 0 | 0 | 9.66 | 22.1 | 0 | 9.98 | 13.71 | 19.28 |